Volver al catálogo

CZ-6A DEB

ActivoPO
NORAD 61371·DEBRIS·🇨🇳 China

Lanzado Aug 6, 2024 desde Taiyuan Satellite Launch Center

Loading…

Próximos Pases (próximas 24 horas)

TLE

ActualizadoSource: Space-Track

Época: Sep 14, 2026, 07:34 UTC

1 61371U 24140WL  26257.31536119  .00004331  00000-0  11767-2 0  9995
2 61371  88.4505 210.7930 0114818  88.8452 272.5903 14.43516687106381

Sigue CZ-6A DEB en tiempo real con AllMySat

Download on the App Store